{"data":{"norad_id":44499,"intl_designator":"2019-054E","name":"GLOBAL-4","alt_names":[],"object_type":"PAYLOAD","status":"ACTIVE","operator":null,"country":"US","launch_date":"2019-08-19","launch_site_code":"RLLB","launch_vehicle":null,"mission":null,"orbit_class":"UNKNOWN","rcs_meters":null,"size_class":null,"mass_kg":null,"dimensions":null,"purposes":[],"wikipedia_slug":null,"has_3d_model":false,"image_url":null,"decayed_at":null,"tle_current":{"epoch":"2026-05-25T00:13:23.634048Z","epoch_age_seconds":77468,"freshness":"FRESH","line1":"1 44499U 19054E   26145.00930132  .00043460  00000+0  48904-3 0  9999","line2":"2 44499  45.0079   9.9044 0005098 200.2463 159.8232 15.61907714376739","mean_motion":15.61907714,"eccentricity":0.0005098,"inclination_deg":45.0079,"raan_deg":9.9044,"arg_perigee_deg":200.2463,"mean_anomaly_deg":159.8232,"bstar":0.00048904,"rev_number":37673,"period_min":92.194947697147,"perigee_km":378.70040563501,"apogee_km":385.59319099577,"semimajor_km":6760.2837983154,"source":"CELESTRAK","updated_at":"2026-05-25T13:37:55.997373Z"}}}